Terminal Aerodrome Forecast
Issued by NWS Caribou, ME

Home | Current Version | Previous Version | Text Only | Print | Product List | Glossary On
Versions: 1 2 3 4 5 6 7 8 9 10 11 12 13 14 15 16 17 18 19 20 21
000
FTUS41 KCAR 191128 CCA
TAFBGR
TAF COR
KBGR 191128Z 1912/2012 32008G14KT P6SM VCSH BKN028
     FM191500 32009G16KT P6SM SCT035
     FM192200 31006KT P6SM FEW040 BKN250=

USA.gov is the U.S. government's official web portal to all federal, state and local government web resources and services.